Arctic Village, AK

5:49 PM AKST on January 18, 2017 (GMT -0900)
Arctic Village

Weather History for PARC - December, 2012

Change the Weather History Date:

Thursday, December 27, 2012

  Actual Average Record
Temperature  
Mean Temperature -10 °F -  
Max Temperature -2 °F -1 °F 25 °F (1962)
Min Temperature -18 °F -23 °F -53 °F (1992)
Degree Days  
Heating Degree Days 75    
Moisture  
Dew Point -28 °F    
Average Humidity 50    
Maximum Humidity 92    
Minimum Humidity 4    
Precipitation  
Precipitation 0.00 in - - ()
Sea Level Pressure  
Sea Level Pressure 29.51 in    
Wind  
Wind Speed 0 mph (NNE)    
Max Wind Speed 4 mph    
Max Gust Speed -    
Visibility 10 miles    
Events      
Averages and records for this station are not official NWS values.
T = Trace of Precipitation, MM = Missing Value Source: NWS Daily Summary

Daily Weather History Graph

Daily Weather History Graph

Search for Another Location

Airport or City:

Trip Planner

Search our weather history database for the weather conditions in past years. The results will help you decide how hot, cold, wet, or windy it might be!

Date:

Astronomy

Dec. 27, 2012 Rise Set
Actual Time 12:11 PM AKST 1:16 PM AKST
Civil Twilight 10:03 AM AKST 3:24 PM AKST
Nautical Twilight 8:34 AM AKST 4:53 PM AKST
Astronomical Twilight 7:22 AM AKST 6:05 PM AKST
Moon 1:51 PM AKST (12/27) 10:47 AM AKST (12/27)
Length of Visible Light 5h 20m
Length of Day
1h 04m
Full, 100% of the Moon is Illuminated
Dec 27
Full
Dec 28
Full
Jan 4
Last Quarter
Jan 11
New
Jan 18
First Quarter

Hourly Weather History & Observations

Time (AKST) Temp. Windchill Dew Point Humidity Pressure Visibility Wind Dir Wind Speed Gust Speed Precip Events Conditions
12:16 AM -9.4 °F - - N/A% 29.56 in 10.0 mi Calm Calm - N/A   Clear
12:36 AM -11.2 °F - - N/A% 29.56 in 10.0 mi Calm Calm - N/A   Clear
12:56 AM -9.4 °F - -27.4 °F 41% 29.56 in 10.0 mi Calm Calm - N/A   Clear
1:16 AM -11.2 °F - -25.6 °F 49% 29.56 in 10.0 mi Calm Calm - N/A   Clear
1:36 AM -11.2 °F - - N/A% 29.56 in 10.0 mi Calm Calm - N/A   Clear
1:56 AM -13.0 °F - - N/A% 29.56 in 10.0 mi Calm Calm - N/A   Clear
2:16 AM -14.8 °F - - N/A% 29.56 in 10.0 mi Calm Calm - N/A   Clear
2:36 AM -11.2 °F - - N/A% 29.56 in 10.0 mi Calm Calm - N/A   Clear
2:56 AM -11.2 °F - - N/A% 29.55 in 10.0 mi Calm Calm - N/A   Clear
3:16 AM -11.2 °F - -27.4 °F 45% 29.55 in 10.0 mi Calm Calm - N/A   Clear
3:36 AM -14.8 °F - - N/A% 29.55 in 10.0 mi Calm Calm - N/A   Clear
3:56 AM -11.2 °F - -23.8 °F 54% 29.55 in 10.0 mi Calm Calm - N/A   Clear
4:16 AM -11.2 °F - -27.4 °F 45% 29.54 in 10.0 mi Calm Calm - N/A   Clear
4:36 AM -9.4 °F - - N/A% 29.53 in 10.0 mi Calm Calm - N/A   Clear
4:56 AM -13.0 °F - - N/A% 29.53 in 9.0 mi Calm Calm - N/A   Clear
5:16 AM -9.4 °F - - N/A% 29.52 in 10.0 mi Calm Calm - N/A   Clear
5:36 AM -9.4 °F - -27.4 °F 41% 29.52 in 10.0 mi Calm Calm - N/A   Clear
5:56 AM -7.6 °F - -23.8 °F 45% 29.52 in 10.0 mi Calm Calm - N/A   Clear
6:16 AM -5.8 °F - -16.6 °F 60% 29.51 in 10.0 mi Calm Calm - N/A   Clear
6:36 AM -2.2 °F - -45.4 °F 11% 29.51 in 10.0 mi Calm Calm - N/A   Clear
6:56 AM -5.8 °F - - N/A% 29.50 in 10.0 mi Calm Calm - N/A   Clear
7:16 AM -16.6 °F - - N/A% 29.51 in 10.0 mi Calm Calm - N/A   Clear
7:36 AM -11.2 °F - - N/A% 29.51 in 10.0 mi Calm Calm - N/A   Clear
7:56 AM -7.6 °F - -29.2 °F 34% 29.51 in 10.0 mi Calm Calm - N/A   Clear
8:16 AM -16.6 °F - - N/A% 29.51 in 10.0 mi Calm Calm - N/A   Clear
8:36 AM -14.8 °F - - N/A% 29.51 in 10.0 mi Calm Calm - N/A   Clear
8:56 AM -11.2 °F - -25.6 °F 49% 29.51 in 10.0 mi Calm Calm - N/A   Clear
9:16 AM -7.6 °F - -20.2 °F 54% 29.51 in 10.0 mi Calm Calm - N/A   Clear
9:36 AM -9.4 °F - -23.8 °F 49% 29.51 in 10.0 mi Calm Calm - N/A   Clear
10:16 AM -11.2 °F - -16.6 °F 77% 29.51 in 10.0 mi Calm Calm - N/A   Clear
10:36 AM -14.8 °F - - N/A% 29.50 in 9.0 mi Calm Calm - N/A   Clear
10:56 AM -14.8 °F - - N/A% 29.50 in 10.0 mi Calm Calm - N/A   Clear
11:16 AM -11.2 °F - - N/A% 29.50 in 10.0 mi Calm Calm - N/A   Clear
11:36 AM -13.0 °F - - N/A% 29.50 in 10.0 mi Calm Calm - N/A   Clear
11:56 AM -18.4 °F -28.9 °F - N/A% 29.50 in 10.0 mi NNE 3.5 mph - N/A   Clear
12:16 PM -14.8 °F -24.8 °F - N/A% 29.50 in 10.0 mi NNE 3.5 mph - N/A   Clear
12:36 PM -9.4 °F - -18.4 °F 65% 29.50 in 10.0 mi Calm Calm - N/A   Clear
12:56 PM -11.2 °F - -23.8 °F 54% 29.50 in 10.0 mi Calm Calm - N/A   Clear
1:16 PM -11.2 °F -20.6 °F - N/A% 29.50 in 10.0 mi NNE 3.5 mph - N/A   Clear
1:36 PM -16.6 °F -26.8 °F - N/A% 29.50 in 10.0 mi NNE 3.5 mph - N/A   Clear
1:56 PM -18.4 °F - - N/A% 29.50 in 10.0 mi Calm Calm - N/A   Clear
2:16 PM -16.6 °F - - N/A% 29.49 in 10.0 mi Calm Calm - N/A   Clear
2:36 PM -16.6 °F - - N/A% 29.49 in 10.0 mi Calm Calm - N/A   Clear
3:16 PM -14.8 °F - - N/A% 29.49 in 9.0 mi Calm Calm - N/A   Clear
3:36 PM -13.0 °F - -23.8 °F 59% 29.48 in 10.0 mi Calm Calm - N/A   Clear
3:56 PM -16.6 °F - - N/A% 29.49 in 10.0 mi Calm Calm - N/A   Clear
4:16 PM -16.6 °F - -23.8 °F 70% 29.49 in 10.0 mi Calm Calm - N/A   Clear
4:36 PM -16.6 °F - - N/A% 29.49 in 10.0 mi Calm Calm - N/A   Clear
4:56 PM -14.8 °F - - N/A% 29.49 in 9.0 mi Calm Calm - N/A   Clear
5:16 PM -16.6 °F - - N/A% 29.49 in 10.0 mi Calm Calm - N/A   Clear
5:36 PM -18.4 °F - - N/A% 29.48 in 10.0 mi Calm Calm - N/A   Clear
5:56 PM -16.6 °F - - N/A% 29.48 in 9.0 mi Calm Calm - N/A   Clear
6:16 PM -14.8 °F - - N/A% 29.48 in 9.0 mi Calm Calm - N/A   Clear
6:36 PM -16.6 °F - - N/A% 29.48 in 10.0 mi Calm Calm - N/A   Clear
6:56 PM -14.8 °F -24.8 °F - N/A% 29.48 in 10.0 mi North 3.5 mph - N/A   Clear
7:16 PM -9.4 °F - -27.4 °F 41% 29.48 in 10.0 mi Calm Calm - N/A   Clear
7:36 PM -14.8 °F - - N/A% 29.49 in 10.0 mi Calm Calm - N/A   Clear
7:56 PM -18.4 °F - - N/A% 29.49 in 10.0 mi Calm Calm - N/A   Clear
8:16 PM -14.8 °F - -16.6 °F 92% 29.49 in 10.0 mi Calm Calm - N/A   Clear
8:36 PM -16.6 °F - - N/A% 29.50 in 10.0 mi Calm Calm - N/A   Clear
8:56 PM -18.4 °F - - N/A% 29.50 in 10.0 mi Calm Calm - N/A   Clear
9:16 PM -14.8 °F - - N/A% 29.50 in 10.0 mi Calm Calm - N/A   Clear
9:36 PM -14.8 °F - - N/A% 29.50 in 10.0 mi Calm Calm - N/A   Clear
9:56 PM -9.4 °F - - N/A% 29.50 in 10.0 mi Calm Calm - N/A   Clear
10:16 PM -14.8 °F - - N/A% 29.51 in 10.0 mi Calm Calm - N/A   Clear
10:36 PM -14.8 °F - - N/A% 29.51 in 10.0 mi Calm Calm - N/A   Clear
10:56 PM -16.6 °F - - N/A% 29.51 in 10.0 mi Calm Calm - N/A   Clear
11:16 PM -18.4 °F - - N/A% 29.51 in 10.0 mi Calm Calm - N/A   Clear
11:36 PM -14.8 °F - -25.6 °F 58% 29.51 in 5.0 mi Calm Calm - N/A   Clear
11:56 PM -16.6 °F - -90.4 °F 4% 29.51 in 8.0 mi Calm Calm - N/A   Clear